This is the latest recevied weather packets stored in our database for station/object HS5FXK-3. If no packets are shown the sender has not sent any weather packets the latest 10 day(s).
| Time | Temp. | Humidity | Pressure | Rain* | Wind** | Luminosity | Snow |
|---|---|---|---|---|---|---|---|
| 1777982325 | 31.67° C | 71% | 976 hPa | - | - | 0 W/m² | - |
| 1777981411 | 32.22° C | 64% | 976 hPa | - | - | 0 W/m² | - |
| 1777980498 | 32.78° C | 64% | 976 hPa | - | - | 0 W/m² | - |
| 1777979586 | 32.78° C | 62% | 976 hPa | - | - | 0 W/m² | - |
| 1777978673 | 33.33° C | 61% | 976 hPa | - | - | 0 W/m² | - |
| 1777977760 | 33.89° C | 59% | 976 hPa | - | - | 0 W/m² | - |
| 1777976847 | 33.89° C | 60% | 976 hPa | - | - | 0 W/m² | - |
| 1777975952 | 33.33° C | 60% | 976 hPa | - | - | 0 W/m² | - |
| 1777975035 | 33.89° C | 60% | 976 hPa | - | - | 0 W/m² | - |
| 1777974131 | 33.89° C | 59% | 976 hPa | - | - | 0 W/m² | - |
| 1777973195 | 33.89° C | 56% | 976 hPa | - | - | 0 W/m² | - |
| 1777972283 | 34.44° C | 53% | 976 hPa | - | - | 0 W/m² | - |
| 1777971371 | 35.56° C | 49% | 977 hPa | - | - | 0 W/m² | - |
| 1777970457 | 35.56° C | 50% | 977 hPa | - | - | 0 W/m² | - |
| 1777970016 | 35.56° C | 49% | 977 hPa | - | - | 0 W/m² | - |
| 1777969103 | 35.56° C | 49% | 977 hPa | - | - | 0 W/m² | - |
| 1777968190 | 36.11° C | 47% | 977 hPa | - | - | 0 W/m² | - |
| 1777967576 | 36.11° C | 47% | 978 hPa | - | - | 0 W/m² | - |
| 1777966663 | 37.22° C | 47% | 978 hPa | - | - | 0 W/m² | - |
| 1777965750 | 36.11° C | 48% | 978 hPa | - | - | 0 W/m² | - |
| 1777964838 | 35.56° C | 50% | 979 hPa | - | - | 0 W/m² | - |
| 1777963925 | 35.56° C | 51% | 979 hPa | - | - | 0 W/m² | - |
| 1777963012 | 35.56° C | 52% | 979 hPa | - | - | 0 W/m² | - |
| 1777962102 | 35.56° C | 53% | 980 hPa | - | - | 0 W/m² | - |
| 1777961930 | 34.44° C | 55% | 980 hPa | - | - | 0 W/m² | - |
* Rain since midnight (hover to see other rain measurements)
** Current wind speed in m/s (hover to see current wind gust speed)